Tracking 17155 objects as of 29-July-2015
HD Live streaming from Space Station

BREEZE-M DEB

Track BREEZE-M DEB now!
10-day predictions
BREEZE-M DEB is classified as:


NORAD ID: 34259
Int'l Code: 2006-006CA
Perigee: 1,068.2 km
Apogee: 14,777.5 km
Inclination: 51.0 °
Period: 283.5 minutes
Semi major axis: 14293 km
RCS: 0.2413 m2 (medium)
Launch date: February 28, 2006
Source: Commonwealth of Independent States (former USSR) (CIS)

Note: This is SATELLITE DEBRIS
Your satellite tracking list
Your tracking list is empty





NASA's NSSDC Master Catalog

Two Line Element Set (TLE):
1 34259U 06006CA  15203.57903795 -.00000018  00000-0  00000+0 0  9990
2 34259 050.9848 072.9357 4795530 291.5195 024.9263 05.08017251175151

Source of the keplerian elements: AFSPC

N2YO: 260